Total_Precipitation_Accumulation
0.10 0.08 0.06 0.05 0.05 0.06 0.07 0.07 0.08 0.08 0.10 0.11 0.14 0.20 0.28 0.37 0.56 0.97 0.87 0.24 0.30 0.42 0.18 0.07 0.05 0.10 0.12 0.15 0.29 0.35 0.37 0.50 0.40 0.28 0.14 0.10 0.09 0.08 0.10 0.16 0.17 0.13 0.10 0.08 0.08 0.12 0.03 0.00 0.03 0.10 0.14 0.04 0.02 0.04
0.06 0.05 0.06 0.07 0.10 0.10 0.09 0.09 0.09 0.10 0.12 0.12 0.10 0.13 0.20 0.33 0.52 0.98 1.28 0.45 0.25 0.41 0.24 0.06 0.04 0.05 0.08 0.15 0.30 0.45 0.54 0.36 0.27 0.25 0.15 0.14 0.14 0.14 0.09 0.10 0.19 0.37 0.16 0.10 0.02 0.02 0.06 0.11 0.11 0.06 0.06 0.11 0.09 0.05
0.07 0.10 0.11 0.11 0.09 0.06 0.06 0.07 0.08 0.09 0.12 0.16 0.17 0.15 0.17 0.25 0.46 0.99 1.14 0.43 0.73 1.15 0.46 0.09 0.06 0.02 0.03 0.06 0.20 0.40 0.20 0.32 0.50 0.57 0.45 0.28 0.20 0.13 0.11 0.07 0.22 0.48 0.64 0.61 0.32 0.18 0.13 0.25 0.21 0.05 0.08 0.05 0.03 0.05
0.15 0.20 0.13 0.07 0.06 0.07 0.08 0.08 0.09 0.09 0.10 0.12 0.18 0.25 0.22 0.26 0.45 0.93 1.00 0.53 0.53 0.64 0.33 0.10 0.00 0.02 0.02 0.04 0.06 0.08 0.14 0.20 0.25 0.38 0.40 0.31 0.17 0.10 0.22 0.14 0.19 0.34 0.49 0.51 0.68 0.47 0.32 0.27 0.67 0.25 0.04 0.04 0.03 0.01
0.34 0.16 0.07 0.06 0.06 0.06 0.07 0.08 0.09 0.10 0.10 0.11 0.17 0.26 0.30 0.37 0.64 0.82 0.80 0.55 0.27 0.25 0.32 0.09 0.01 0.00 0.01 0.04 0.08 0.13 0.15 0.17 0.27 0.33 0.31 0.11 0.08 0.14 0.13 0.31 0.29 0.10 0.28 0.60 0.77 0.93 0.66 0.52 0.39 0.36 0.24 0.10 0.03 0.01
0.20 0.09 0.09 0.07 0.05 0.06 0.06 0.06 0.07 0.08 0.10 0.13 0.15 0.24 0.39 0.53 0.94 1.48 2.15 1.33 0.38 0.24 0.36 0.22 0.06 0.01 0.01 0.03 0.06 0.12 0.24 0.41 0.58 0.52 0.26 0.14 0.16 0.31 0.31 0.45 0.38 0.26 0.15 0.13 0.37 0.51 0.71 0.57 0.27 0.09 0.06 0.04 0.02 0.02
0.11 0.11 0.10 0.08 0.06 0.05 0.05 0.04 0.03 0.04 0.10 0.16 0.20 0.25 0.53 0.74 0.94 0.85 0.50 0.35 0.29 0.29 0.56 0.24 0.13 0.10 0.04 0.09 0.09 0.14 0.27 0.61 0.66 0.67 0.42 0.15 0.17 0.35 0.46 0.40 0.27 0.15 0.05 0.01 0.04 0.10 0.08 0.06 0.05 0.01 0.01 0.01 0.01 0.01
0.10 0.09 0.11 0.10 0.19 0.11 0.05 0.06 0.06 0.09 0.14 0.24 0.31 0.37 0.78 1.00 1.05 0.59 0.06 0.01 0.06 0.44 0.35 0.36 0.19 0.30 0.11 0.16 0.21 0.18 0.31 0.43 0.44 0.32 0.20 0.10 0.16 0.42 0.46 0.17 0.05 0.02 0.01 0.00 0.00 0.01 0.01 0.00 0.00 0.01 0.01 0.01 0.01 0.01
0.04 0.10 0.13 0.18 0.21 0.19 0.19 0.22 0.23 0.34 0.48 0.48 0.73 1.23 1.85 1.59 1.09 0.52 0.12 0.10 0.15 0.28 0.22 0.32 0.25 0.54 0.20 0.19 0.20 0.24 0.20 0.33 0.25 0.27 0.09 0.13 0.24 0.35 0.27 0.08 0.04 0.02 0.02 0.02 0.01 0.02 0.04 0.07 0.09 0.09 0.09 0.09 0.10 0.10
0.02 0.06 0.11 0.16 0.12 0.14 0.22 0.40 0.62 0.86 0.86 0.89 1.27 1.34 1.53 0.92 0.52 0.60 1.23 1.25 1.01 0.46 0.20 0.17 0.28 0.56 0.31 0.21 0.21 0.31 0.20 0.18 0.23 0.17 0.16 0.32 0.25 0.15 0.04 0.01 0.03 0.08 0.10 0.09 0.06 0.07 0.08 0.10 0.11 0.16 0.20 0.22 0.23 0.24
0.07 0.13 0.19 0.21 0.23 0.33 0.57 0.80 0.68 0.55 0.76 1.07 1.06 0.87 1.17 0.86 0.62 0.88 1.04 0.73 0.64 0.34 0.08 0.14 0.16 0.13 0.31 0.33 0.13 0.17 0.32 0.14 0.19 0.22 0.27 0.31 0.15 0.13 0.02 0.00 0.00 0.01 0.01 0.03 0.10 0.11 0.10 0.11 0.13 0.13 0.13 0.13 0.14 0.16
0.11 0.12 0.10 0.14 0.25 0.44 0.51 0.51 0.49 0.55 0.66 0.42 0.33 0.81 0.86 0.74 0.71 0.52 0.48 0.24 0.19 0.14 0.06 0.11 0.14 0.16 0.33 0.65 0.19 0.09 0.38 0.38 0.23 0.34 0.38 0.23 0.16 0.05 0.01 0.01 0.01 0.02 0.02 0.02 0.03 0.05 0.08 0.09 0.10 0.10 0.12 0.14 0.15 0.15
0.19 0.11 0.10 0.12 0.21 0.29 0.36 0.45 0.47 0.21 0.15 0.06 0.11 0.25 0.33 0.44 0.23 0.27 0.18 0.09 0.08 0.05 0.07 0.07 0.16 0.13 0.19 0.58 0.20 0.12 0.14 0.46 0.29 0.30 0.22 0.13 0.09 0.03 0.02 0.02 0.02 0.02 0.03 0.04 0.06 0.08 0.08 0.09 0.09 0.09 0.11 0.14 0.13 0.14
0.19 0.14 0.13 0.14 0.19 0.24 0.30 0.33 0.23 0.13 0.06 0.07 0.11 0.09 0.14 0.05 0.04 0.08 0.08 0.05 0.04 0.07 0.09 0.05 0.04 0.05 0.09 0.15 0.20 0.21 0.11 0.03 0.11 0.12 0.09 0.13 0.07 0.06 0.05 0.05 0.04 0.06 0.07 0.07 0.09 0.10 0.11 0.10 0.12 0.13 0.13 0.16 0.11 0.14
0.14 0.12 0.10 0.13 0.10 0.07 0.05 0.05 0.03 0.02 0.00 0.01 0.00 0.01 0.03 0.06 0.09 0.11 0.08 0.06 0.09 0.12 0.09 0.07 0.04 0.02 0.06 0.10 0.06 0.05 0.06 0.06 0.05 0.08 0.11 0.12 0.09 0.09 0.11 0.10 0.10 0.11 0.12 0.12 0.13 0.11 0.14 0.14 0.11 0.16 0.19 0.19 0.15 0.16
0.05 0.07 0.07 0.07 0.05 0.02 0.02 0.00 0.00 0.00 0.00 0.00 0.02 0.06 0.08 0.09 0.12 0.10 0.11 0.11 0.15 0.16 0.05 0.03 0.01 0.03 0.09 0.08 0.07 0.08 0.06 0.06 0.10 0.12 0.15 0.12 0.12 0.16 0.17 0.16 0.18 0.19 0.17 0.17 0.17 0.16 0.16 0.16 0.15 0.17 0.18 0.16 0.16 0.14
0.01 0.01 0.02 0.02 0.02 0.02 0.01 0.00 0.00 0.03 0.02 0.02 0.05 0.06 0.07 0.06 0.10 0.13 0.13 0.13 0.13 0.07 0.02 0.01 0.02 0.05 0.08 0.07 0.12 0.15 0.20 0.21 0.19 0.21 0.20 0.19 0.17 0.19 0.19 0.18 0.20 0.19 0.18 0.17 0.17 0.17 0.17 0.18 0.16 0.12 0.13 0.17 0.12 0.08
0.00 0.00 0.00 0.00 0.00 0.00 0.00 0.00 0.01 0.01 0.04 0.08 0.07 0.09 0.04 0.07 0.07 0.07 0.04 0.02 0.00 0.00 0.00 0.02 0.02 0.04 0.09 0.11 0.09 0.11 0.15 0.16 0.15 0.16 0.17 0.18 0.18 0.17 0.17 0.16 0.17 0.16 0.15 0.16 0.14 0.14 0.13 0.12 0.09 0.08 0.06 0.04 0.01 0.00
0.00 0.01 0.01 0.00 0.00 0.00 0.00 0.00 0.00 0.02 0.06 0.07 0.07 0.04 0.03 0.03 0.02 0.02 0.00 0.00 0.00 0.00 0.00 0.00 0.01 0.05 0.07 0.07 0.04 0.05 0.05 0.05 0.08 0.11 0.12 0.14 0.14 0.13 0.13 0.13 0.12 0.12 0.12 0.12 0.10 0.09 0.09 0.07 0.05 0.03 0.02 0.01 0.01 0.00
0.00 0.00 0.00 0.00 0.00 0.00 0.00 0.00 0.00 0.00 0.04 0.04 0.04 0.03 0.03 0.04 0.02 0.00 0.00 0.00 0.00 0.00 0.01 0.03 0.11 0.13 0.09 0.09 0.03 0.03 0.03 0.03 0.03 0.04 0.07 0.09 0.09 0.09 0.11 0.09 0.08 0.08 0.08 0.08 0.06 0.04 0.02 0.01 0.00 0.00 0.01 0.01 0.01 0.02
0.00 0.00 0.00 0.00 0.00 0.00 0.00 0.00 0.00 0.00 0.01 0.02 0.01 0.00 0.02 0.01 0.00 0.00 0.00 0.00 0.00 0.02 0.07 0.12 0.13 0.15 0.06 0.06 0.04 0.03 0.05 0.06 0.07 0.04 0.03 0.05 0.06 0.04 0.05 0.05 0.06 0.06 0.04 0.02 0.01 0.01 0.00 0.00 0.00 0.00 0.00 0.01 0.01 0.01
0.00 0.00 0.00 0.00 0.00 0.00 0.00 0.00 0.00 0.00 0.00 0.01 0.03 0.02 0.02 0.01 0.00 0.00 0.00 0.00 0.06 0.13 0.11 0.09 0.06 0.04 0.02 0.02 0.03 0.01 0.02 0.01 0.01 0.01 0.01 0.02 0.02 0.02 0.01 0.01 0.01 0.01 0.01 0.01 0.00 0.01 0.00 0.00 0.00 0.00 0.00 0.00 0.00 0.00
0.00 0.00 0.00 0.00 0.00 0.00 0.04 0.02 0.02 0.02 0.01 0.01 0.00 0.00 0.00 0.00 0.00 0.00 0.00 0.03 0.11 0.11 0.04 0.02 0.02 0.01 0.01 0.01 0.00 0.00 0.00 0.00 0.00 0.00 0.00 0.00 0.00 0.00 0.00 0.00 0.00 0.00 0.00 0.00 0.00 0.00 0.00 0.00 0.00 0.00 0.00 0.01 0.01 0.00
0.00 0.00 0.00 0.00 0.00 0.01 0.00 0.00 0.00 0.00 0.00 0.00 0.00 0.00 0.00 0.00 0.00 0.00 0.01 0.03 0.06 0.04 0.02 0.01 0.00 0.00 0.00 0.00 0.00 0.00 0.00 0.00 0.00 0.00 0.00 0.00 0.00 0.00 0.00 0.00 0.00 0.00 0.00 0.00 0.00 0.00 0.00 0.01 0.00 0.01 0.00 0.01 0.01 0.01
0.00 0.00 0.00 0.00 0.00 0.00 0.00 0.00 0.00 0.00 0.00 0.00 0.00 0.00 0.00 0.00 0.00 0.00 0.00 0.03 0.04 0.02 0.01 0.00 0.01 0.01 0.00 0.00 0.00 0.00 0.00 0.00 0.00 0.00 0.00 0.00 0.00 0.00 0.00 0.00 0.00 0.00 0.00 0.01 0.01 0.00 0.00 0.00 0.00 0.00 0.00 0.00 0.00 0.00
0.00 0.00 0.00 0.00 0.00 0.00 0.00 0.00 0.00 0.00 0.00 0.00 0.00 0.00 0.00 0.00 0.00 0.02 0.03 0.02 0.03 0.01 0.02 0.02 0.01 0.00 0.00 0.00 0.00 0.00 0.00 0.00 0.00 0.00 0.00 0.00 0.00 0.00 0.01 0.00 0.00 0.01 0.00 0.00 0.00 0.01 0.01 0.00 0.00 0.00 0.00 0.00 0.00 0.00
0.00 0.00 0.00 0.00 0.00 0.00 0.00 0.00 0.00 0.00 0.00 0.00 0.00 0.00 0.00 0.00 0.01 0.04 0.10 0.03 0.02 0.02 0.01 0.00 0.00 0.00 0.00 0.00 0.00 0.00 0.00 0.00 0.00 0.00 0.00 0.00 0.00 0.00 0.00 0.00 0.00 0.01 0.00 0.00 0.00 0.00 0.01 0.01 0.00 0.00 0.00 0.00 0.01 0.01
0.00 0.00 0.00 0.00 0.00 0.00 0.00 0.00 0.00 0.00 0.01 0.00 0.00 0.00 0.00 0.00 0.05 0.08 0.07 0.06 0.01 0.00 0.00 0.00 0.00 0.00 0.00 0.00 0.00 0.00 0.00 0.00 0.00 0.00 0.00 0.00 0.00 0.00 0.00 0.00 0.00 0.00 0.00 0.00 0.00 0.00 0.00 0.00 0.00 0.01 0.01 0.00 0.00 0.01
0.00 0.00 0.00 0.00 0.00 0.00 0.01 0.01 0.01 0.01 0.01 0.00 0.00 0.01 0.02 0.07 0.09 0.06 0.05 0.02 0.00 0.00 0.00 0.00 0.00 0.00 0.00 0.00 0.00 0.00 0.00 0.00 0.00 0.00 0.00 0.01 0.02 0.01 0.00 0.00 0.00 0.00 0.01 0.01 0.01 0.01 0.01 0.01 0.00 0.00 0.01 0.00 0.01 0.00
0.00 0.00 0.00 0.00 0.01 0.03 0.06 0.04 0.03 0.02 0.01 0.00 0.01 0.03 0.06 0.15 0.19 0.07 0.04 0.03 0.02 0.01 0.01 0.00 0.01 0.01 0.00 0.00 0.00 0.00 0.00 0.00 0.00 0.01 0.01 0.01 0.01 0.01 0.01 0.00 0.00 0.00 0.00 0.00 0.01 0.00 0.01 0.01 0.01 0.00 0.01 0.01 0.01 0.01
0.00 0.00 0.00 0.00 0.03 0.06 0.05 0.03 0.02 0.01 0.01 0.01 0.00 0.00 0.05 0.10 0.10 0.08 0.06 0.03 0.01 0.00 0.01 0.01 0.01 0.01 0.00 0.00 0.01 0.01 0.01 0.00 0.00 0.00 0.00 0.00 0.00 0.01 0.01 0.01 0.01 0.01 0.01 0.00 0.00 0.00 0.00 0.00 0.00 0.00 0.00 0.00 0.00 0.00
0.00 0.00 0.00 0.01 0.04 0.04 0.08 0.03 0.01 0.01 0.01 0.00 0.01 0.01 0.01 0.00 0.02 0.04 0.05 0.05 0.03 0.02 0.01 0.01 0.01 0.01 0.00 0.00 0.00 0.00 0.00 0.00 0.00 0.00 0.00 0.01 0.00 0.00 0.00 0.00 0.00 0.00 0.00 0.00 0.00 0.00 0.00 0.00 0.00 0.00 0.00 0.00 0.00 0.00
0.00 0.00 0.00 0.00 0.01 0.01 0.03 0.02 0.00 0.00 0.01 0.01 0.02 0.03 0.02 0.00 0.02 0.03 0.03 0.04 0.07 0.03 0.02 0.01 0.01 0.00 0.00 0.00 0.00 0.00 0.00 0.00 0.00 0.00 0.00 0.00 0.00 0.00 0.00 0.00 0.00 0.00 0.00 0.00 0.00 0.00 0.00 0.00 0.00 0.00 0.00 0.00 0.00 0.00